[[{"header":{"parameterUnit":"m.s-1","parameterCategory":1,"la1":30.2991,"la2":30.254,"lo1":-89.0895,"lo2":-89.0444,"dy":0.0017,"dx":0.0017,"nx":28,"ny":28,"refTime":"2023-07-23T21:00:00:Z","depth":0,"parameterNumber":2,"parameterNumberName":"U-component_of_WINDS"},"data":[0,0,0,0,0,0,0,0,0,0,0,0,0,0,0,0,0,0,0,0,0,0,0,0,0,0,0,0,0,0,0,0,0,0,0,0,0,0,0,0,0,0,0,0,0,0,0,0,0,0,0,0,0,0,0,0,0,0,-2.0414,-2.0413,0,-2.0301,-2.0299,-2.0298,-2.0168,-2.0166,-2.0165,-2.0163,-2.0047,-2.0045,-2.0044,0,0,0,0,0,0,0,0,0,0,0,0,0,-2.0521,-2.052,-2.0414,-2.0413,-2.0411,-2.0301,-2.0299,-2.0298,-2.0169,-2.0166,-2.0164,-2.0162,-2.0047,-2.0046,-2.0044,0,0,0,0,0,0,0,0,0,0,0,0,0,-2.0448,-2.0519,-2.0415,-2.0334,-2.0325,-2.0301,-2.0299,-2.0297,-2.0169,-2.0166,-2.0163,-2.0161,-2.0048,-2.0046,-2.0044,-2.009,0,0,-2.0038,-2.0037,0,0,0,0,0,0,0,0,-2.0452,-2.0444,-2.0347,-2.0339,-2.033,-2.0246,-2.0294,-2.0228,-2.017,-2.0229,-2.0163,-2.0159,-2.0115,-2.0108,-2.0093,-2.0084,-2.0079,-2.0038,-2.0037,-2.0036,-2.0035,0,0,0,0,0,0,0,-2.0457,-2.0448,-2.0369,-2.0346,-2.0335,-2.0304,-2.029,-2.0281,-2.019,-2.0223,-2.0214,-2.0202,-2.011,-2.0095,-2.0089,-2.0078,-2.0038,-2.0036,-2.0035,-2.0034,-2.0102,-2.0105,0,0,0,0,0,0,-2.0474,-2.0453,-2.0373,-2.0366,-2.0385,-2.0304,-2.0289,-2.0276,-2.0189,-2.0173,-2.0204,-2.0196,-2.01,-2.0091,-2.0084,-2.0132,-2.0036,-2.0034,-2.0033,-2.0099,-2.0103,-2.0106,0,0,0,0,0,0,-2.0477,-2.0468,-2.0377,-2.0407,-2.0393,-2.0305,-2.0292,-2.0275,-2.0259,-2.0175,-2.0158,-2.0206,-2.0097,-2.0087,-2.009,-2.0127,-2.0033,-2.0031,-2.0096,-2.0101,-2.0105,-2.0229,0,0,0,0,0,0,-2.0481,-2.047,-2.0486,-2.0408,-2.0392,-2.0384,-2.0294,-2.0275,-2.0256,-2.0245,-2.0172,-2.0157,-2.0094,-2.0093,-2.0088,-2.0122,-2.003,-2.0092,-2.0098,-2.0103,-2.0222,-2.0238,-2.0251,0,0,0,0,0,-2.0485,-2.0526,-2.0488,-2.0479,-2.041,-2.0387,-2.0377,-2.0304,-2.026,-2.0276,-2.0222,-2.0159,-2.0124,-2.0095,-2.0087,-2.0122,-2.0089,-2.0096,-2.0103,-2.0215,-2.0234,-2.0251,0,0,0,0,0,0,-2.061,-2.0514,-2.0471,-2.0487,-2.0447,-2.0365,-2.0382,-2.0327,-2.0297,-2.0288,-2.0198,-2.0183,-2.0196,-2.0159,-2.0128,-2.0162,-2.0098,-2.0103,-2.0185,-2.0203,-2.0218,-2.0226,-2.0028,0,0,0,0,0,-2.064,-2.0629,-2.0546,-2.0568,-2.055,-2.0471,-2.0457,-2.0405,-2.0358,-2.034,-2.0286,-2.0244,-2.0223,-2.0211,-2.0188,-2.0216,-2.0199,-2.0237,-2.0252,-2.0264,-2.027,-2.0282,-2.0298,-2.0128,-2.0128,-2.0128,0,0,-2.0701,-2.0647,-2.0645,-2.0592,-2.0554,-2.0545,-2.0456,-2.045,-2.0442,-2.0339,-2.0338,-2.0298,-2.0245,-2.0261,-2.0265,-2.023,-2.0313,-2.0273,-2.0284,-2.0282,-2.0291,-2.0307,-2.0322,-2.0133,-2.0132,-2.0131,0,0,-2.0807,-2.0765,-2.0779,-2.0744,-2.0687,-2.0634,-2.0638,-2.0566,-2.0535,-2.0532,-2.0455,-2.0445,-2.0411,-2.0377,-2.0355,-2.0451,-2.0392,-2.0446,-2.0523,-2.0536,-2.055,-2.0561,-2.0595,-2.0608,-2.0452,-2.0452,-2.0452,0,-2.0889,-2.0872,-2.0794,-2.0793,-2.0772,-2.0679,-2.0693,-2.0662,-2.0602,-2.059,-2.0552,-2.0508,-2.0466,-2.0473,-2.0497,-2.0482,-2.0484,-2.0453,-2.0554,-2.0565,-2.0574,-2.0605,-2.0618,-2.0459,-2.0458,-2.0457,-2.0457,0,-2.0976,-2.0966,-2.0984,-2.0928,-2.0909,-2.0916,-2.084,-2.0831,-2.0781,-2.0732,-2.0732,-2.0678,-2.0642,-2.0641,-2.0591,-2.0641,-2.0621,-2.0571,-2.0503,-2.0599,-2.0626,-2.0638,-2.0469,-2.0466,-2.0464,-2.0463,0,0,-2.1155,-2.1057,-2.1065,-2.1039,-2.0971,-2.0962,-2.0965,-2.093,-2.0924,-2.0886,-2.0886,-2.0861,-2.0814,-2.079,-2.0736,-2.0748,-2.0828,-2.0696,-2.0693,-2.0721,-2.0879,-2.0917,-2.0932,-2.0789,-2.0791,-2.0793,-2.0883,0,-2.1248,-2.1247,-2.1178,-2.1197,-2.1186,-2.1099,-2.1102,-2.1061,-2.1017,-2.1002,-2.0953,-2.0936,-2.0875,-2.086,-2.0868,-2.0816,-2.0858,-2.0809,-2.0789,-2.0789,-2.0803,-2.0946,-2.0985,-2.1073,-2.0893,-2.0895,-2.0897,0,-2.1355,-2.1324,-2.1342,-2.1274,-2.1267,-2.1271,-2.1234,-2.1221,-2.1173,-2.114,-2.1114,-2.1054,-2.1053,-2.0992,-2.0989,-2.0958,-2.0946,-2.0919,-2.0921,-2.0915,-2.0847,-2.0943,-2.1099,-2.1112,-2.0913,-2.0912,-2.091,0,-2.1483,-2.1445,-2.1451,-2.1431,-2.1353,-2.1358,-2.1326,-2.1275,-2.1259,-2.1228,-2.1216,-2.1186,-2.1168,-2.1146,-2.1079,-2.1041,-2.1085,-2.1018,-2.1057,-2.1059,-2.1068,-2.1069,-2.1224,-2.1064,-2.1064,-2.1064,-2.1063,0,-2.1593,-2.1607,-2.1507,-2.1511,-2.1525,-2.1446,-2.1462,-2.1421,-2.1378,-2.1372,-2.1296,-2.1293,-2.1205,-2.1193,-2.1141,-2.1147,-2.114,-2.1113,-2.1099,-2.1119,-2.1122,-2.1108,-2.11,-2.1067,-2.1066,-2.1066,-2.1065,0,-2.1736,-2.1671,-2.1671,-2.1598,-2.158,-2.1593,-2.153,-2.1531,-2.1483,-2.1477,-2.1471,-2.1395,-2.1376,-2.1308,-2.1272,-2.1238,-2.126,-2.1233,-2.1276,-2.1266,-2.1309,-2.1306,-2.146,-2.1476,-2.1308,-2.1309,-2.1311,0,-2.181,-2.1819,-2.1747,-2.1738,-2.1709,-2.1695,-2.1678,-2.1603,-2.1589,-2.1537,-2.1544,-2.1519,-2.1494,-2.1469,-2.1411,-2.1383,-2.1355,-2.1411,-2.135,-2.137,-2.1354,-2.1354,-2.1354,-2.1423,-2.1425,-2.1427,-2.1429,0,-2.1947,-2.1914,-2.1893,-2.1862,-2.1844,-2.1816,-2.1782,-2.178,-2.1695,-2.1684,-2.1663,-2.1645,-2.1609,-2.1585,-2.1549,-2.1516,-2.1459,-2.1449,-2.1456,-2.1476,-2.15,-2.1487,-2.131,-2.1445,-2.1443,-2.1442,-2.1441,-2.1441,-2.2056,-2.206,-2.2011,-2.199,-2.1958,-2.1929,-2.1926,-2.1878,-2.186,-2.1825,-2.1782,-2.1767,-2.1721,-2.1666,-2.1638,-2.1626,-2.1594,-2.1605,-2.1608,-2.1611,-2.1621,-2.1504,-2.1619,-2.1619,-2.1618,-2.1618,-2.1617,0,-2.2188,-2.2153,-2.2135,-2.2091,-2.2076,-2.2024,-2.1986,-2.1976,-2.1964,-2.1926,-2.1904,-2.1882,-2.1859,-2.18,-2.1772,-2.1774,-2.1747,-2.1769,-2.1767,-2.176,-2.1651,-2.1647,-2.1791,-2.1791,-2.1791,-2.1791,-2.1791,-2.1791,-2.2255,-2.2259,-2.2222,-2.2209,-2.2173,-2.2158,-2.2141,-2.2114,-2.2083,-2.2062,-2.2043,-2.2005,-2.1959,-2.1927,-2.1904,-2.1887,-2.188,-2.1911,-2.1886,-2.1784,-2.1768,-2.1752,-2.1747,-2.191,-2.191,-2.1995,-2.1996,-2.1997]},{"header":{"parameterUnit":"m.s-1","parameterCategory":1,"la1":30.2991,"la2":30.254,"lo1":-89.0895,"lo2":-89.0444,"dy":0.0017,"dx":0.0017,"nx":28,"ny":28,"refTime":"2023-07-23T21:00:00:Z","depth":0,"parameterNumber":3,"parameterNumberName":"V-component_of_WINDS"},"data":[0,0,0,0,0,0,0,0,0,0,0,0,0,0,0,0,0,0,0,0,0,0,0,0,0,0,0,0,0,0,0,0,0,0,0,0,0,0,0,0,0,0,0,0,0,0,0,0,0,0,0,0,0,0,0,0,0,0,1.7501,1.7502,0,1.7554,1.7555,1.7555,1.7597,1.7597,1.7598,1.7598,1.7649,1.7649,1.765,0,0,0,0,0,0,0,0,0,0,0,0,0,1.7433,1.7434,1.7501,1.7502,1.7503,1.7554,1.7555,1.7556,1.7597,1.7597,1.7598,1.7598,1.7648,1.7649,1.7651,0,0,0,0,0,0,0,0,0,0,0,0,0,1.7471,1.7434,1.7501,1.7529,1.7532,1.7554,1.7555,1.7556,1.7597,1.7597,1.7598,1.7598,1.7648,1.7649,1.7651,1.7647,0,0,1.7655,1.7656,0,0,0,0,0,0,0,0,1.7469,1.7474,1.7525,1.7527,1.7531,1.757,1.7549,1.7586,1.7596,1.7572,1.7598,1.7599,1.7622,1.7625,1.7634,1.765,1.7652,1.7655,1.7656,1.7657,1.7657,0,0,0,0,0,0,0,1.7466,1.7472,1.7522,1.7525,1.7529,1.7538,1.7545,1.7556,1.7593,1.7574,1.7577,1.7583,1.7623,1.7632,1.7635,1.7653,1.7655,1.7656,1.7657,1.7658,1.7669,1.7668,0,0,0,0,0,0,1.746,1.7469,1.752,1.7524,1.7501,1.7539,1.7546,1.7556,1.7593,1.7599,1.7583,1.7585,1.7629,1.7633,1.7637,1.7636,1.7657,1.7658,1.7659,1.7669,1.7669,1.7668,0,0,0,0,0,0,1.7458,1.7464,1.7518,1.7497,1.7505,1.754,1.7551,1.7557,1.7566,1.7599,1.7605,1.7585,1.763,1.7635,1.7645,1.7638,1.7659,1.766,1.767,1.7669,1.7668,1.7632,0,0,0,0,0,0,1.7456,1.7463,1.7463,1.7497,1.7506,1.7526,1.7551,1.7558,1.7569,1.7572,1.7603,1.7609,1.7631,1.7642,1.7646,1.764,1.7661,1.7671,1.767,1.7668,1.7634,1.763,1.7627,0,0,0,0,0,1.7453,1.745,1.7463,1.7469,1.7507,1.7525,1.753,1.7557,1.7568,1.7568,1.7589,1.7608,1.7638,1.7643,1.7648,1.7642,1.7671,1.767,1.7669,1.7636,1.7631,1.7627,0,0,0,0,0,0,1.7412,1.7455,1.747,1.7477,1.7498,1.7532,1.7533,1.7551,1.7568,1.757,1.7601,1.7608,1.7614,1.7629,1.7634,1.7641,1.7657,1.7657,1.7631,1.7626,1.7623,1.7619,1.7662,0,0,0,0,0,1.7405,1.7417,1.7453,1.7456,1.7466,1.7498,1.7507,1.7526,1.7547,1.7556,1.7578,1.7597,1.7611,1.762,1.7635,1.7637,1.7644,1.7635,1.7632,1.7629,1.7628,1.763,1.7626,1.7664,1.7664,1.7664,0,0,1.7388,1.7413,1.7419,1.7449,1.7467,1.7479,1.7504,1.7515,1.7524,1.7557,1.7568,1.7585,1.7609,1.7615,1.7618,1.7627,1.7619,1.7627,1.7624,1.7625,1.7628,1.7625,1.7621,1.7663,1.7663,1.7663,0,0,1.7363,1.7384,1.7389,1.7407,1.7434,1.7455,1.7456,1.7489,1.7501,1.7513,1.7538,1.7548,1.7572,1.7588,1.7599,1.7582,1.7599,1.7585,1.7566,1.7568,1.7565,1.7563,1.7556,1.7553,1.7584,1.7584,1.7584,0,1.7339,1.7358,1.7389,1.7399,1.7411,1.7443,1.7448,1.7463,1.7493,1.7501,1.7511,1.7541,1.756,1.757,1.7566,1.7574,1.7575,1.7582,1.7563,1.7561,1.7559,1.7553,1.7551,1.7582,1.7583,1.7583,1.7583,0,1.7327,1.734,1.734,1.737,1.7383,1.739,1.742,1.7429,1.7447,1.7467,1.7478,1.7501,1.7522,1.7525,1.7542,1.7538,1.7543,1.7558,1.7574,1.7553,1.7548,1.7546,1.758,1.758,1.7581,1.7581,0,0,1.7277,1.7324,1.7324,1.7338,1.7371,1.7381,1.739,1.7411,1.7418,1.7437,1.7445,1.7464,1.7479,1.7491,1.751,1.7512,1.7496,1.7527,1.7528,1.752,1.7493,1.7481,1.7478,1.7509,1.7508,1.7508,1.7491,0,1.7257,1.7276,1.7303,1.7312,1.7324,1.7355,1.7363,1.7383,1.7402,1.7414,1.7434,1.7448,1.7466,1.7473,1.7477,1.7498,1.7491,1.7499,1.7515,1.7515,1.7507,1.7475,1.7463,1.7445,1.7489,1.7488,1.7488,0,1.7237,1.7256,1.7267,1.7299,1.7305,1.7312,1.7333,1.7345,1.7369,1.7382,1.7397,1.7418,1.7428,1.7443,1.7457,1.7462,1.747,1.7481,1.7481,1.7483,1.75,1.7476,1.744,1.7437,1.7485,1.7486,1.7486,0,1.7199,1.7228,1.7238,1.7249,1.7287,1.7291,1.7307,1.7331,1.7342,1.7361,1.7368,1.7387,1.7397,1.7411,1.7436,1.7445,1.7447,1.7465,1.7457,1.7457,1.7456,1.7455,1.742,1.7461,1.7462,1.7462,1.7462,0,1.7174,1.7179,1.7222,1.7228,1.7234,1.7266,1.7271,1.7289,1.7311,1.732,1.7348,1.7356,1.7389,1.7401,1.7421,1.7429,1.7433,1.7444,1.7449,1.7441,1.744,1.7446,1.7448,1.7461,1.7461,1.7461,1.7461,0,1.7133,1.7162,1.7175,1.721,1.7219,1.7222,1.7252,1.7259,1.728,1.7291,1.7296,1.7328,1.7343,1.737,1.7393,1.7407,1.741,1.7419,1.7402,1.7406,1.7397,1.7397,1.7364,1.7362,1.7405,1.7404,1.7404,0,1.7115,1.7119,1.7156,1.7165,1.718,1.7194,1.7206,1.7237,1.7248,1.7276,1.7278,1.7296,1.7312,1.7335,1.736,1.7377,1.7387,1.7374,1.7389,1.7382,1.7386,1.7385,1.7386,1.737,1.737,1.7369,1.7369,0,1.7079,1.7094,1.711,1.7132,1.7145,1.7163,1.7182,1.7188,1.7223,1.7234,1.7251,1.7263,1.7287,1.7304,1.7325,1.7341,1.736,1.7364,1.7363,1.7355,1.7345,1.735,1.7392,1.7364,1.7365,1.7365,1.7365,1.7366,1.7049,1.7055,1.7081,1.7099,1.7117,1.7135,1.7143,1.7165,1.718,1.7203,1.722,1.7235,1.7259,1.729,1.7304,1.7316,1.7325,1.7324,1.7323,1.7323,1.7319,1.7344,1.732,1.732,1.732,1.732,1.732,0,1.7014,1.7034,1.7049,1.7076,1.709,1.7109,1.7131,1.7141,1.7155,1.7176,1.7191,1.721,1.7227,1.7254,1.7273,1.7277,1.7286,1.7281,1.728,1.7284,1.731,1.7309,1.7273,1.7273,1.7273,1.7273,1.7273,1.7273,1.6998,1.7009,1.7026,1.7046,1.7065,1.7082,1.7093,1.7109,1.7126,1.7147,1.7161,1.7179,1.7202,1.7223,1.7239,1.7246,1.7252,1.7243,1.7253,1.7277,1.7282,1.7286,1.7285,1.7244,1.7244,1.7225,1.7225,1.7225]}]]